| time (UTC) | temp F | wind direction | speed knots | gust knots | rain 1hr in | rain 24hr in | rain mn in | humidity % | barometer mb |
| 20260503184005 | 66 | 296 | 2.6 | 4.3 | 0.00 | 0.13 | 0.00 | 85 | 1016.2 |
| 20260503183005 | 66 | 293 | 0.9 | 1.7 | 0.00 | 0.13 | 0.00 | 85 | 1016.2 |
| 20260503182006 | 66 | 42 | 0.0 | 1.7 | 0.00 | 0.13 | 0.00 | 85 | 1016.1 |
| 20260503181004 | 66 | 337 | 0.9 | 1.7 | 0.00 | 0.13 | 0.00 | 84 | 1016.1 |
| 20260503180504 | 66 | 27 | 0.0 | 2.6 | 0.00 | 0.13 | 0.00 | 84 | 1016.1 |
| 20260503180005 | 66 | 95 | 0.9 | 2.6 | 0.00 | 0.13 | 0.00 | 84 | 1016.1 |
| 20260503175505 | 66 | 317 | 0.9 | 2.6 | 0.00 | 0.13 | 0.00 | 84 | 1016.1 |
| 20260503175005 | 66 | 336 | 0.9 | 2.6 | 0.00 | 0.13 | 0.00 | 84 | 1016.2 |
| 20260503174504 | 66 | 335 | 1.7 | 2.6 | 0.00 | 0.13 | 0.00 | 84 | 1016.2 |
| 20260503174005 | 66 | 324 | 2.6 | 4.3 | 0.00 | 0.13 | 0.00 | 84 | 1016.2 |
| 20260503172004 | 66 | 324 | 0.9 | 2.6 | 0.00 | 0.13 | 0.00 | 82 | 1016.5 |
| 20260503171504 | 67 | 300 | 0.9 | 1.7 | 0.00 | 0.13 | 0.00 | 82 | 1016.5 |
| 20260503171004 | 67 | 71 | 0.9 | 1.7 | 0.00 | 0.13 | 0.00 | 82 | 1016.5 |
| 20260503170505 | 67 | 156 | 0.9 | 2.6 | 0.00 | 0.13 | 0.00 | 81 | 1016.5 |
| 20260503151007 | 68 | 321 | 1.7 | 4.3 | 0.00 | 0.13 | 0.00 | 78 | 1017.5 |
| 20260503131007 | 69 | 279 | 3.5 | 7.8 | 0.00 | 0.08 | 0.07 | 78 | 1018.3 |
| 20260503110506 | 70 | 291 | 6.1 | 10.4 | 0.04 | 0.06 | 0.05 | 83 | 1018.6 |
| 20260503072006 | 71 | 273 | 3.5 | 6.1 | 0.00 | 0.02 | 0.01 | 76 | 1018.3 |
| 20260503055005 | 73 | 280 | 1.7 | 5.2 | 0.00 | 0.02 | 0.01 | 73 | 1018.7 |
| 20260503054506 | 73 | 329 | 4.3 | 7.8 | 0.00 | 0.02 | 0.01 | 73 | 1018.8 |
| 20260503053506 | 73 | 284 | 2.6 | 6.1 | 0.00 | 0.02 | 0.01 | 74 | 1018.8 |
| 20260503051505 | 73 | 299 | 1.7 | 4.3 | 0.00 | 0.02 | 0.01 | 73 | 1019.0 |
| 20260503051006 | 72 | 348 | 1.7 | 6.1 | 0.00 | 0.02 | 0.01 | 74 | 1019.0 |
| 20260503050506 | 72 | 312 | 1.7 | 7.0 | 0.00 | 0.02 | 0.01 | 74 | 1019.0 |
| 20260503050006 | 72 | 296 | 2.6 | 5.2 | 0.00 | 0.02 | 0.01 | 74 | 1019.0 |
| 20260503044505 | 72 | 285 | 1.7 | 5.2 | 0.00 | 0.02 | 0.01 | 73 | 1019.1 |
| 20260503043506 | 73 | 345 | 4.3 | 7.8 | 0.00 | 0.02 | 0.01 | 72 | 1019.1 |
| 20260503043005 | 73 | 317 | 1.7 | 6.1 | 0.00 | 0.02 | 0.01 | 71 | 1019.1 |
| 20260503042505 | 73 | 334 | 2.6 | 7.8 | 0.00 | 0.02 | 0.01 | 72 | 1019.1 |
| 20260503042006 | 73 | 313 | 1.7 | 7.0 | 0.00 | 0.02 | 0.01 | 71 | 1019.2 |
| 20260503041505 | 73 | 309 | 1.7 | 7.8 | 0.00 | 0.02 | 0.01 | 70 | 1019.3 |
| 20260503041005 | 73 | 20 | 2.6 | 6.1 | 0.00 | 0.02 | 0.01 | 70 | 1019.2 |
| 20260503040006 | 73 | 347 | 0.9 | 5.2 | 0.00 | 0.02 | 0.01 | 68 | 1019.3 |
| 20260503035505 | 73 | 3 | 1.7 | 6.1 | 0.00 | 0.02 | 0.01 | 68 | 1019.3 |
| 20260503034506 | 72 | 301 | 2.6 | 6.1 | 0.00 | 0.02 | 0.01 | 71 | 1019.4 |
| 20260503032505 | 73 | 176 | 1.7 | 8.7 | 0.00 | 0.02 | 0.01 | 69 | 1019.6 |
| 20260503031506 | 74 | 343 | 0.9 | 6.1 | 0.00 | 0.02 | 0.01 | 66 | 1019.6 |
| 20260503030506 | 74 | 336 | 2.6 | 6.1 | 0.00 | 0.02 | 0.01 | 67 | 1019.9 |
| 20260503030006 | 74 | 278 | 2.6 | 7.0 | 0.00 | 0.02 | 0.01 | 67 | 1020.0 |
| 20260503025005 | 74 | 127 | 1.7 | 5.2 | 0.00 | 0.02 | 0.01 | 66 | 1020.2 |
| 20260503024506 | 74 | 47 | 0.9 | 7.0 | 0.00 | 0.02 | 0.01 | 66 | 1020.2 |
| 20260503024005 | 73 | 345 | 2.6 | 7.0 | 0.00 | 0.02 | 0.01 | 66 | 1020.3 |
| 20260503023005 | 73 | 139 | 1.7 | 7.0 | 0.00 | 0.02 | 0.01 | 66 | 1020.3 |
| 20260503022006 | 73 | 266 | 2.6 | 7.0 | 0.00 | 0.02 | 0.01 | 67 | 1020.5 |
| 20260503021505 | 73 | 16 | 0.9 | 6.1 | 0.00 | 0.02 | 0.01 | 66 | 1020.7 |
| 20260503020506 | 73 | 55 | 1.7 | 7.0 | 0.00 | 0.02 | 0.01 | 66 | 1020.9 |
| 20260503015505 | 73 | 288 | 2.6 | 5.2 | 0.00 | 0.02 | 0.01 | 65 | 1021.0 |
| 20260503014505 | 73 | 294 | 2.6 | 5.2 | 0.00 | 0.02 | 0.01 | 66 | 1021.2 |
| 20260503014005 | 73 | 329 | 0.9 | 5.2 | 0.00 | 0.02 | 0.01 | 65 | 1021.3 |
| 20260503013506 | 73 | 307 | 2.6 | 6.1 | 0.00 | 0.02 | 0.01 | 66 | 1021.2 |
| 20260503012505 | 73 | 221 | 1.7 | 6.1 | 0.00 | 0.02 | 0.01 | 65 | 1021.4 |
| 20260503012006 | 73 | 139 | 2.6 | 6.1 | 0.00 | 0.02 | 0.01 | 66 | 1021.6 |
| 20260503011505 | 73 | 313 | 2.6 | 7.8 | 0.00 | 0.02 | 0.01 | 65 | 1021.5 |
| 20260503011005 | 73 | 275 | 1.7 | 7.0 | 0.00 | 0.02 | 0.01 | 66 | 1021.5 |
| 20260503010505 | 73 | 349 | 1.7 | 8.7 | 0.00 | 0.02 | 0.01 | 64 | 1021.6 |
| 20260503004005 | 71 | 303 | 6.1 | 11.3 | 0.00 | 0.02 | 0.01 | 65 | 1022.0 |
| 20260503003505 | 71 | 294 | 6.1 | 12.2 | 0.00 | 0.02 | 0.01 | 66 | 1022.0 |
| 20260503002006 | 72 | 294 | 4.3 | 7.8 | 0.00 | 0.02 | 0.01 | 63 | 1022.2 |
| 20260503001006 | 72 | 288 | 3.5 | 7.0 | 0.00 | 0.02 | 0.01 | 65 | 1022.3 |
| 20260503000005 | 71 | 293 | 2.6 | 7.8 | 0.00 | 0.02 | 0.01 | 66 | 1022.2 |
| 20260502235506 | 71 | 299 | 2.6 | 8.7 | 0.00 | 0.02 | 0.01 | 66 | 1022.3 |
| 20260502234005 | 71 | 298 | 6.1 | 10.4 | 0.00 | 0.02 | 0.01 | 66 | 1022.3 |
| 20260502231506 | 70 | 308 | 2.6 | 7.0 | 0.00 | 0.02 | 0.01 | 69 | 1022.7 |
| 20260502230005 | 70 | 283 | 5.2 | 7.0 | 0.00 | 0.02 | 0.01 | 72 | 1022.6 |
| 20260502223505 | 69 | 285 | 4.3 | 7.0 | 0.00 | 0.02 | 0.01 | 74 | 1022.6 |
| 20260502223005 | 69 | 296 | 3.5 | 6.1 | 0.00 | 0.02 | 0.01 | 75 | 1022.6 |
| 20260502221005 | 68 | 301 | 4.3 | 6.1 | 0.00 | 0.02 | 0.01 | 77 | 1022.6 |
| 20260502215505 | 67 | 297 | 2.6 | 6.1 | 0.00 | 0.02 | 0.01 | 78 | 1022.4 |
| 20260502214005 | 67 | 291 | 4.3 | 6.1 | 0.00 | 0.02 | 0.01 | 78 | 1022.3 |
| 20260502213505 | 67 | 290 | 2.6 | 6.1 | 0.00 | 0.02 | 0.01 | 78 | 1022.2 |
| 20260502210505 | 67 | 289 | 4.3 | 7.0 | 0.00 | 0.02 | 0.01 | 78 | 1022.1 |
| 20260502205005 | 66 | 312 | 3.5 | 6.1 | 0.00 | 0.02 | 0.01 | 79 | 1021.9 |
| 20260502204505 | 66 | 296 | 4.3 | 6.1 | 0.00 | 0.02 | 0.01 | 79 | 1022.0 |
| 20260502203505 | 66 | 281 | 2.6 | 4.3 | 0.00 | 0.02 | 0.01 | 80 | 1022.0 |
| 20260502203005 | 66 | 286 | 2.6 | 4.3 | 0.00 | 0.02 | 0.01 | 80 | 1022.1 |
| 20260502202505 | 66 | 281 | 4.3 | 5.2 | 0.00 | 0.02 | 0.01 | 79 | 1022.2 |
| 20260502202005 | 66 | 299 | 2.6 | 5.2 | 0.00 | 0.02 | 0.01 | 79 | 1022.1 |
| 20260502200505 | 66 | 285 | 2.6 | 4.3 | 0.00 | 0.02 | 0.01 | 80 | 1022.1 |
| 20260502195005 | 67 | 285 | 4.3 | 5.2 | 0.00 | 0.02 | 0.01 | 80 | 1022.0 |
| 20260502193005 | 67 | 299 | 2.6 | 5.2 | 0.00 | 0.02 | 0.01 | 80 | 1021.8 |